Alabaster, AL

8:48 AM CDT on May 25, 2017 (GMT -0500)
Shelby County

Weather History for KEET - April, 2014

Change the Weather History Date:

Friday, April 18, 2014

  Actual Average Record
Temperature  
Mean Temperature 56 °F 63 °F  
Max Temperature 60 °F 75 °F 90 °F (2006)
Min Temperature 52 °F 51 °F 32 °F (1961)
Degree Days  
Heating Degree Days 9 4  
Month to date heating degree days 87 96  
Since 1 July heating degree days 2709 2534  
Cooling Degree Days 0 2  
Month to date cooling degree days 18 27  
Year to date cooling degree days 22 44  
Growing Degree Days 6 (Base 50)    
Moisture  
Dew Point 51 °F    
Average Humidity 77    
Maximum Humidity 93    
Minimum Humidity 60    
Precipitation  
Precipitation 1.13 in 0.13 in 1.45 in (1969)
Month to date precipitation 7.58 2.37  
Year to date precipitation 23.01 17.93  
Snow  
Snow 0.00 in - - ()
Month to date snowfall 0.0  
Since 1 July snowfall 1.3  
Snow Depth 0.00 in    
Sea Level Pressure  
Sea Level Pressure 30.21 in    
Wind  
Wind Speed 6 mph (NE)    
Max Wind Speed 10 mph    
Max Gust Speed 18 mph    
Visibility 6 miles    
Events Rain    
T = Trace of Precipitation, MM = Missing Value Source: NWS Daily Summary

Daily Weather History Graph

Daily Weather History Graph

Search for Another Location

Airport or City:

Trip Planner

Search our weather history database for the weather conditions in past years. The results will help you decide how hot, cold, wet, or windy it might be!

Date:

Astronomy

Apr. 18, 2014 Rise Set
Actual Time 6:13 AM CDT 7:19 PM CDT
Civil Twilight 5:47 AM CDT 7:45 PM CDT
Nautical Twilight 5:17 AM CDT 8:16 PM CDT
Astronomical Twilight 4:46 AM CDT 8:47 PM CDT
Moon 10:57 PM CDT (4/18) 8:41 AM CDT (4/18)
Length of Visible Light 13h 57m
Length of Day
13h 06m
Waning Gibbous, 87% of the Moon is Illuminated
Apr 18
Waning Gibbous
Apr 22
Last Quarter
Apr 29
New
May 6
First Quarter
May 14
Full

Hourly Weather History & Observations

Time (CDT) Temp. Dew Point Humidity Pressure Visibility Wind Dir Wind Speed Gust Speed Precip Events Conditions
12:53 AM 60.1 °F 48.0 °F 64% 30.23 in 10.0 mi Variable 4.6 mph - N/A   Clear
1:53 AM 60.1 °F 46.9 °F 62% 30.23 in 10.0 mi ESE 4.6 mph - N/A   Overcast
2:53 AM 60.1 °F 46.0 °F 60% 30.21 in 10.0 mi East 5.8 mph - N/A   Overcast
3:53 AM 60.1 °F 46.0 °F 60% 30.20 in 10.0 mi ENE 4.6 mph - N/A   Overcast
4:53 AM 59.0 °F 46.9 °F 64% 30.20 in 10.0 mi East 9.2 mph - 0.00 in Rain Light Rain
5:53 AM 54.0 °F 51.1 °F 90% 30.21 in 4.0 mi East 5.8 mph - 0.06 in Rain Rain
7:41 AM 53.1 °F 51.1 °F 93% 30.24 in 2.5 mi Variable 5.8 mph - 0.08 in Rain Rain
7:49 AM 53.6 °F 51.8 °F 94% 30.25 in 3.0 mi Variable 3.5 mph - 0.09 in Rain Light Rain
7:53 AM 53.1 °F 51.1 °F 93% 30.24 in 3.0 mi ENE 3.5 mph - 0.10 in Rain Light Rain
8:03 AM 53.1 °F 52.0 °F 96% 30.25 in 2.5 mi Calm Calm - 0.01 in Rain Rain
8:15 AM 53.1 °F 52.0 °F 96% 30.25 in 1.8 mi Variable 5.8 mph - 0.05 in Rain Rain
8:29 AM 53.1 °F 52.0 °F 96% 30.26 in 1.0 mi NE 5.8 mph - 0.16 in Rain Heavy Rain
8:45 AM 53.1 °F 52.0 °F 96% 30.26 in 1.2 mi Variable 3.5 mph - 0.23 in Rain Heavy Rain
8:53 AM 53.1 °F 52.0 °F 96% 30.25 in 1.0 mi Variable 5.8 mph - 0.31 in Rain Heavy Rain
9:53 AM 53.1 °F 51.1 °F 93% 30.26 in 1.8 mi ENE 6.9 mph - 0.38 in Rain Rain
10:00 AM 53.1 °F 51.1 °F 93% 30.27 in 2.0 mi NE 8.1 mph - 0.02 in Rain Rain
10:13 AM 53.1 °F 52.0 °F 96% 30.27 in 3.0 mi Variable 3.5 mph - 0.04 in Rain Light Rain
10:35 AM 53.1 °F 51.1 °F 93% 30.25 in 3.0 mi NE 6.9 mph - 0.07 in Rain Light Rain
10:47 AM 53.6 °F 51.8 °F 94% 30.26 in 2.5 mi Variable 5.8 mph - 0.09 in Rain Rain
10:53 AM 53.1 °F 51.1 °F 93% 30.25 in 3.0 mi Variable 5.8 mph - 0.10 in Rain Light Rain
11:04 AM 53.1 °F 51.1 °F 93% 30.25 in 4.0 mi NE 5.8 mph - 0.01 in Rain Light Rain
11:15 AM 54.0 °F 52.0 °F 93% 30.25 in 4.0 mi Variable 6.9 mph - 0.02 in Rain Light Rain
11:53 AM 54.0 °F 52.0 °F 93% 30.22 in 5.0 mi NE 9.2 mph - 0.03 in Rain Light Rain
12:32 PM 53.1 °F 51.1 °F 93% 30.21 in 4.0 mi ENE 9.2 mph - 0.01 in Rain Light Rain
12:53 PM 54.0 °F 52.0 °F 93% 30.19 in 8.0 mi NE 6.9 mph - 0.01 in   Overcast
1:53 PM 55.0 °F 52.0 °F 89% 30.18 in 8.0 mi Variable 4.6 mph - 0.00 in Rain Light Rain
2:53 PM 55.9 °F 52.0 °F 87% 30.14 in 10.0 mi East 5.8 mph - 0.00 in   Scattered Clouds
3:46 PM 55.9 °F 52.0 °F 87% 30.14 in 10.0 mi Variable 4.6 mph - N/A   Mostly Cloudy
3:53 PM 55.9 °F 52.0 °F 87% 30.14 in 10.0 mi Variable 3.5 mph - N/A   Mostly Cloudy
4:53 PM 57.0 °F 52.0 °F 83% 30.14 in 10.0 mi North 6.9 mph - N/A   Overcast
5:53 PM 57.0 °F 51.1 °F 81% 30.15 in 10.0 mi NE 5.8 mph - N/A   Overcast
6:38 PM 55.9 °F 50.0 °F 80% 30.14 in 10.0 mi NNE 6.9 mph - N/A   Overcast
7:53 PM 55.0 °F 50.0 °F 83% 30.15 in 10.0 mi Variable 4.6 mph - N/A   Overcast
8:53 PM 55.0 °F 50.0 °F 83% 30.17 in 10.0 mi NNE 5.8 mph - 0.00 in Rain Light Rain
9:08 PM 55.0 °F 50.0 °F 83% 30.17 in 10.0 mi Variable 4.6 mph - 0.00 in Rain Light Rain
10:53 PM 53.1 °F 51.1 °F 93% 30.16 in 10.0 mi NNE 3.5 mph - 0.00 in Rain Light Rain
11:53 PM 53.1 °F 51.1 °F 93% 30.14 in 10.0 mi NNE 4.6 mph - 0.01 in Rain Light Rain